Weather Roundup
Issued by NWS Chicago, IL

Home | Current Version | Previous Version | Text Only | Print | Product List | Glossary Off
Versions: 1 2 3 4 5 6 7 8 9 10 11 12 13 14 15 16 17 18 19 20 21 22 23 24 25 26 27 28 29 30 31 32 33 34 35 36 37 38 39 40 41 42 43 44 45 46 47 48 49 50

000
NZUS59 KLOT 290403
HRRLOT

CHICAGO AREA WEATHER ROUNDUP
NATIONAL WEATHER SERVICE CHICAGO/ROMEOVILLE IL
1100 PM CDT THU APR 28 2016

NOTE: "FAIR" INDICATES FEW OR NO CLOUDS BELOW 12,000 FEET WITH NO
SIGNIFICANT WEATHER AND/OR OBSTRUCTIONS TO VISIBILITY.

* THESE STATIONS ARE NOT UNDER NWS QUALITY CONTROL. THEY ALSO MAY NOT
  REPORT WEATHER SUCH AS PRECIPITATION OR FOG.

ILZ005-006-012>014-019>023-290500-
NORTHEAST ILLINOIS

CITY           SKY/WX    TMP DP  RH WIND       PRES   REMARKS
OHARE          CLOUDY    42  41  96 N10G22    30.00F FOG
MIDWAY         CLOUDY    45  41  86 N7        30.00F FOG
AURORA         CLOUDY    45  42  89 NE9       30.01S FOG
LANSING*       CLOUDY    46  42  88 CALM      30.00F
WAUKEGAN       LGT RAIN  41  40  96 N5        30.01F FOG
DUPAGE AIRPORT CLOUDY    43  39  86 NE7       30.00F
WHEELING       CLOUDY    42  41  96 N6        30.02F
MORRIS*        CLOUDY    46  43  87 CALM      29.99S
$$

WIZ051-052-058>065-066-070>072-290500-
SOUTHEAST WISCONSIN

CITY           SKY/WX    TMP DP  RH WIND       PRES   REMARKS
MILWAUKEE      DRIZZLE   41  39  93 NE9       30.04S FOG
KENOSHA*       LGT RAIN  41  39  93 NE8       30.02F FOG
RACINE*        CLOUDY    41  39  93 NE8       30.04F FOG
BURLINGTON     CLOUDY    38  38  99 N3        30.03S FOG
WAUKESHA       CLOUDY    37  36  93 NE7       30.05S FOG
$$

INZ001>003-010>013-019-020-290500-
NORTHWEST INDIANA

CITY           SKY/WX    TMP DP  RH WIND       PRES   REMARKS
GARY*          NOT AVBL
MICHIGAN CITY* NOT AVBL
RENSSELAER*    NOT AVBL
VALPARAISO     CLOUDY    48  44  86 NW3       29.99S
$$

LMZ740>746-290500-
SOUTHERN LAKE MICHIGAN

STATION/POSITION TIME  SKY/WX   TEMP WIND        PRES    VSBY
                                AIR  DIR/SP/G
                 (UTC)          (F)  (DEG/KT/KT) (MB)    (MI)
HARRISON CRIB    0300            44  360/ 11/ 12   N/A
BURNHAM HARBOR   0300            44  350/  7/ 10   N/A
CALUMET HARBOR   0300            44              1015.6R
BURNS HARBOR     0313            45  320/  4/  7 1016.3R
MICHIGAN CITY    0300            48  200/  3/  4   N/A
$$

ABBREVIATIONS USED IN REMARKS
   TC - TEMPERATURE IN CELSIUS
  WCI - WIND CHILL INDEX
   HX - HEAT INDEX
  VSB - VISIBILITY
$$



USA.gov is the U.S. government's official web portal to all federal, state and local government web resources and services.